Retour au catalogue

CZ-6A DEB

ActifPO
NORAD 61436·DEBRIS·🇨🇳 China

Lancé Aug 6, 2024 depuis Taiyuan Satellite Launch Center

Loading…

Prochains Passages (prochaines 24 heures)

TLE

FraisSource: Space-Track

Époque: Sep 14, 2026, 06:30 UTC

1 61436U 24140ZD  26257.27119977  .00000661  00000-0  30533-3 0  9996
2 61436  88.9352 259.3938 0054444 252.2280 107.2964 14.19085592106783

Suivez CZ-6A DEB en temps réel avec AllMySat

Download on the App Store